DIAMANT R/B, 2682

Orbit data source: Space-Track

DIAMANT R/B, 2682 is space debris in LEO originally from a launch on Wed, 15 Feb 1967 UTC launched from the Hamma Guira Space Track Range (HGSTR). Debris objects in space refer to the collection of defunct objects orbiting the Earth. Examples of debris include non-operational satellites, rocket bodies, and fragments generated from explosions, collisions, or faulty payload assembly.

Loading next visibility...
Identifier
2682, 1967-014B
Orbit
LEO
Last TLE update
15 hours ago
Origin
Manufacturer
Sud
Mission
Spacecraft
Bus & Motor
RUBIS, Unknown motor
Mass
65 kg wet, 65 kg dry
Launch date (UTC)
1967-02-15 (58 years ago)
Launch vehicle
Unknown
Launch site
Hamma Guira Space Track Range (HGSTR)
Object type
Payload
Rocket body
Debris
Shape & HBR
Cyl, 2.1 m
Radar Cross Section
1.347 m², Large (>1 m²)

Expand to show TLE details & history

TLE from 15 hours ago
0 DIAMANT R/B
1 02682U 67014B   25128.62162334  .00001357  00000-0  59290-3 0  9995
2 02682  39.4584 245.6628 0746076 190.4979 167.9365 13.31748868809929
Epoch: 2025-05-08T14:55Z
Definitive object data (Epoch: 2025-05-08T14:55:08.256Z)
Latitude
-0°
Longitude
155.18891°
Altitude
1,689.695 km
Speed
6.77 km/s
True Right ascension
16h 22m 39s
True Declination
0° 00' 00"
Sunlit
Object was in full shadow at TLE epoch
Visualization TLE readout
Latitude
38.72895°
Longitude
-103.31841°
Altitude
1,128.951 km
Speed
7.3 km/s
Apparent Right ascension
00h 26m 49s
Apparent Declination
3° 27' 14"
Sunlit
Object is in daylight
Visualization observer readout
Local Sidereal Time
14:01:15
Azimuth
32.269° NE
Elevation
-41.518°
Doppler factor
1
Orbital elements
Apogee altitude
1,703.605 km
Perigee altitude
581.41 km
Semi-major axis
7,520.645 km
Eccentricity
0.0746076
Inclination
39.4584°
RAAN
245.6628°
Arg. of periapsis
190.4979°
True anomaly
169.5733°
Mean anomaly
167.9365°
Eccentric anomaly
168.76906°
Mean motion
3.32783 °/min
BSTAR
0.0005929
Orbital period
108.18 mins
Loading maneuver chart data...
Loading SW <> Apogee altitude chart data...
Loading historical data...
Loading historical data...
Loading historical data...
Loading historical data...
Loading historical data...
Loading historical data...
Loading historical data...

DIAMANT R/B Visibility forecast

Observer location: undefined°, undefined°

Span
Click to sort rows by Start time (UTC) header in descending order
Start Az.
Max El. time (UTC)
Max El. Az.
Max El.
End time (UTC)
End Az.
13 mins2025-05-09 09:01:30.521Z181.132° SSW2025-05-09 09:08:30.521Z137.378° SSE20.406°2025-05-09 09:14:30.521Z97.138° ESE
16 mins2025-05-09 10:54:30.521Z221.948° SW2025-05-09 11:02:30.521Z156.696° SSE38.219°2025-05-09 11:10:30.521Z82.069° E
15 mins2025-05-09 12:49:30.521Z255.7° W2025-05-09 12:57:30.521Z181.269° SSW44.746°2025-05-09 13:04:30.521Z84.652° E
13 mins2025-05-09 14:45:30.521Z275.231° WNW2025-05-09 14:52:30.521Z187.148° SSW44.698°2025-05-09 14:58:30.521Z104.181° ESE
10 mins2025-05-09 16:41:30.521Z271.853° WNW2025-05-09 16:46:30.521Z210.858° SW33.09°2025-05-09 16:51:30.521Z143.516° SSE
|